FW8685 Weather Reports


time (UTC)temp
F
wind
direction
speed
knots
gust
knots
rain 1hr
in
rain 24hr
in
rain mn
in
humidity
%
barometer
mb
20260903151546 87 106 9.6 20.0 0.00 0.00 0.00 61 1011.4
20260903151025 87 119 12.2 20.0 0.00 0.00 0.00 61 1011.4
20260903150526 87 119 12.2 19.1 0.00 0.00 0.00 62 1011.4
20260903150046 86 145 8.7 18.2 0.00 0.00 0.00 62 1011.4
20260903145528 86 126 11.3 20.0 0.00 0.00 0.00 62 1011.4
20260903145024 86 126 11.3 20.0 0.00 0.00 0.00 63 1011.4
20260903144543 85 121 13.0 20.0 0.00 0.00 0.00 63 1011.4
20260903144029 85 126 9.6 20.0 0.00 0.00 0.00 64 1011.5
20260903143525 85 141 9.6 17.4 0.00 0.00 0.00 65 1011.4
20260903143101 84 135 10.4 18.2 0.00 0.00 0.00 65 1011.5
20260903142527 84 126 9.6 18.2 0.00 0.00 0.00 66 1011.5
20260903142025 84 112 12.2 19.1 0.00 0.00 0.00 66 1011.7
20260903141559 83 113 9.6 19.1 0.00 0.00 0.00 68 1011.6
20260903141027 83 111 10.4 16.5 0.00 0.00 0.00 69 1011.7
20260903140524 82 134 10.4 16.5 0.00 0.00 0.00 70 1011.8
20260903140046 81 114 9.6 16.5 0.00 0.00 0.00 70 1011.8
20260903135524 81 114 10.4 18.2 0.00 0.00 0.00 71 1011.7
20260903135028 81 128 11.3 18.2 0.00 0.00 0.00 71 1011.8
20260903134557 80 110 12.2 18.2 0.00 0.00 0.00 72 1011.8
20260903134024 80 111 8.7 16.5 0.00 0.00 0.00 73 1011.7
20260903133524 79 113 7.8 16.5 0.00 0.00 0.00 74 1011.6
20260903133043 79 114 8.7 16.5 0.00 0.00 0.00 74 1011.6
20260903132524 78 89 8.7 13.0 0.00 0.00 0.00 75 1011.5
20260903132024 78 109 6.1 10.4 0.00 0.00 0.00 76 1011.5
20260903131548 77 136 7.0 12.2 0.00 0.00 0.00 77 1011.5
20260903131024 77 111 7.0 12.2 0.00 0.00 0.00 78 1011.5
20260903130526 76 115 5.2 10.4 0.00 0.00 0.00 79 1011.5
20260903130044 75 119 6.1 10.4 0.00 0.00 0.00 80 1011.4
20260903125525 75 111 6.1 11.3 0.00 0.00 0.00 80 1011.4
20260903125024 75 117 7.0 11.3 0.00 0.00 0.00 81 1011.4
20260903124545 74 102 7.0 11.3 0.00 0.00 0.00 81 1011.3
20260903124024 74 104 7.8 10.4 0.00 0.00 0.00 81 1011.3
20260903123526 74 96 7.0 9.6 0.00 0.00 0.00 81 1011.3
20260903123048 73 119 7.0 9.6 0.00 0.00 0.00 81 1011.1
20260903122524 73 115 7.0 9.6 0.00 0.00 0.00 81 1011.0
20260903122024 73 125 6.1 9.6 0.00 0.00 0.00 81 1011.1
20260903121544 73 109 6.1 9.6 0.00 0.00 0.00 81 1011.1
20260903121025 73 111 6.1 8.7 0.00 0.00 0.00 80 1011.0
20260903120523 73 101 5.2 7.8 0.00 0.00 0.00 80 1010.9
20260903120045 73 103 4.3 7.8 0.00 0.00 0.00 80 1010.9
20260903115524 73 111 5.2 7.8 0.00 0.00 0.00 80 1010.9
20260903115024 73 110 5.2 8.7 0.00 0.00 0.00 79 1010.8
20260903114545 73 109 4.3 8.7 0.00 0.00 0.00 79 1010.7
20260903114024 73 101 5.2 8.7 0.00 0.00 0.00 79 1010.6
20260903113524 73 107 5.2 7.8 0.00 0.00 0.00 79 1010.5
20260903113046 74 107 4.3 7.0 0.00 0.00 0.00 78 1010.6
20260903112524 74 98 5.2 7.0 0.00 0.00 0.00 78 1010.6
20260903112027 74 100 4.3 6.1 0.00 0.00 0.00 77 1010.7
20260903111544 74 92 2.6 6.1 0.00 0.00 0.00 77 1010.8
20260903111024 74 113 2.6 5.2 0.00 0.00 0.00 77 1010.7
20260903110525 74 119 2.6 6.1 0.00 0.00 0.00 77 1010.8
20260903110054 74 108 3.5 6.1 0.00 0.00 0.00 77 1010.6
20260903105525 74 108 2.6 5.2 0.00 0.00 0.00 76 1010.7
20260903105024 75 114 2.6 6.1 0.00 0.00 0.00 76 1010.6
20260903104547 75 117 2.6 6.1 0.00 0.00 0.00 76 1010.6
20260903104024 75 111 3.5 7.0 0.00 0.00 0.00 76 1010.6
20260903103523 75 117 3.5 7.0 0.00 0.00 0.00 75 1010.7
20260903103052 75 121 4.3 7.0 0.00 0.00 0.00 75 1010.6
20260903102522 75 115 4.3 7.0 0.00 0.00 0.00 75 1010.6
20260903102027 75 113 3.5 6.1 0.00 0.00 0.00 74 1010.7
20260903101554 75 115 2.6 6.1 0.00 0.00 0.00 73 1010.8
20260903101023 76 119 3.5 6.1 0.00 0.00 0.00 73 1010.6
20260903100525 76 111 3.5 6.1 0.00 0.00 0.00 73 1010.5
20260903100045 76 117 3.5 6.1 0.00 0.00 0.00 72 1010.6
20260903095523 76 110 3.5 6.1 0.00 0.00 0.00 72 1010.6
20260903095026 76 116 3.5 7.8 0.00 0.00 0.00 72 1010.6
20260903094545 76 117 4.3 7.8 0.00 0.00 0.00 71 1010.4
20260903094024 77 117 4.3 7.0 0.00 0.00 0.00 70 1010.5
20260903093525 77 109 3.5 7.0 0.00 0.00 0.00 70 1010.6
20260903093103 77 109 2.6 7.0 0.00 0.00 0.00 70 1010.6
20260903092527 77 109 3.5 7.0 0.00 0.00 0.00 69 1010.6
20260903092024 77 121 3.5 7.8 0.00 0.00 0.00 69 1010.6
20260903091545 77 121 4.3 7.8 0.00 0.00 0.00 69 1010.6
20260903091024 78 103 4.3 7.8 0.00 0.00 0.00 68 1010.6
20260903090524 78 119 3.5 7.8 0.00 0.00 0.00 68 1010.5
20260903090048 78 128 4.3 7.8 0.00 0.00 0.00 68 1010.4
20260903085523 78 119 4.3 7.8 0.00 0.00 0.00 67 1010.4
20260903085024 78 128 4.3 9.6 0.00 0.00 0.00 67 1010.4
20260903084543 78 119 5.2 9.6 0.00 0.00 0.00 67 1010.3
20260903084026 78 123 5.2 9.6 0.00 0.00 0.00 66 1010.3
20260903083527 78 114 5.2 9.6 0.00 0.00 0.00 66 1010.2
20260903083047 79 121 5.2 9.6 0.00 0.00 0.00 66 1010.2
20260903082526 79 111 6.1 9.6 0.00 0.00 0.00 66 1010.4
20260903082024 79 102 5.2 9.6 0.00 0.00 0.00 65 1010.3
20260903081547 79 133 6.1 9.6 0.00 0.00 0.00 65 1010.3
20260903081024 79 115 6.1 9.6 0.00 0.00 0.00 65 1010.3
20260903080524 79 113 5.2 10.4 0.00 0.00 0.00 65 1010.2
20260903080047 79 110 7.0 10.4 0.00 0.00 0.00 65 1010.2
20260903075527 79 130 5.2 10.4 0.00 0.00 0.00 65 1010.1
20260903075028 79 114 6.1 9.6 0.00 0.00 0.00 64 1010.1
20260903074542 79 126 6.1 9.6 0.00 0.00 0.00 64 1010.0
20260903074026 79 116 5.2 9.6 0.00 0.00 0.00 64 1010.1
20260903073524 79 119 6.1 9.6 0.00 0.00 0.00 64 1010.0
20260903073046 79 99 6.1 8.7 0.00 0.00 0.00 63 1010.3
20260903072523 79 109 5.2 7.8 0.00 0.00 0.00 63 1010.3
20260903072029 79 110 5.2 7.8 0.00 0.00 0.00 63 1010.2
20260903071544 79 115 5.2 9.6 0.00 0.00 0.00 63 1010.1
20260903071025 79 111 5.2 9.6 0.00 0.00 0.00 63 1010.1
20260903070525 80 119 6.1 9.6 0.00 0.00 0.00 63 1010.2
20260903070047 80 117 5.2 9.6 0.00 0.00 0.00 62 1010.1
20260903065525 80 103 6.1 9.6 0.00 0.00 0.00 62 1010.2
20260903065023 80 105 6.1 9.6 0.00 0.00 0.00 62 1010.1
20260903064546 80 111 6.1 9.6 0.00 0.00 0.00 62 1010.0
20260903064024 80 115 6.1 9.6 0.00 0.00 0.00 62 1010.1
20260903063524 80 105 6.1 9.6 0.00 0.00 0.00 61 1010.0
20260903063109 80 102 7.0 9.6 0.00 0.00 0.00 61 1009.9
20260903062524 80 107 6.1 9.6 0.00 0.00 0.00 61 1010.0
20260903062028 81 109 6.1 8.7 0.00 0.00 0.00 61 1010.1
20260903061543 81 105 6.1 7.8 0.00 0.00 0.00 60 1010.0
20260903061024 81 108 6.1 8.7 0.00 0.00 0.00 60 1010.0
20260903060526 81 101 5.2 9.6 0.00 0.00 0.00 60 1009.9
20260903060048 81 106 5.2 9.6 0.00 0.00 0.00 60 1010.0
20260903055527 81 103 6.1 9.6 0.00 0.00 0.00 59 1009.9
20260903055024 81 103 6.1 8.7 0.00 0.00 0.00 59 1009.9
20260903054545 81 116 6.1 8.7 0.00 0.00 0.00 59 1009.9
20260903054024 81 121 6.1 9.6 0.00 0.00 0.00 59 1009.9
20260903053524 82 106 6.1 9.6 0.00 0.00 0.00 58 1010.0
20260903053041 82 111 7.0 9.6 0.00 0.00 0.00 58 1009.9
20260903052525 82 100 7.0 9.6 0.00 0.00 0.00 58 1009.9
20260903052025 82 107 6.1 9.6 0.00 0.00 0.00 58 1009.9
20260903051548 82 107 6.1 9.6 0.00 0.00 0.00 57 1010.0
20260903051023 82 111 6.1 8.7 0.00 0.00 0.00 57 1009.9
20260903050525 83 108 6.1 9.6 0.00 0.00 0.00 57 1009.9
20260903050107 83 101 6.1 10.4 0.00 0.00 0.00 56 1009.9
20260903045524 83 101 6.1 10.4 0.00 0.00 0.00 56 1009.8
20260903045024 83 106 7.0 10.4 0.00 0.00 0.00 56 1009.8
20260903044551 83 103 6.1 10.4 0.00 0.00 0.00 55 1009.8
20260903044024 84 100 7.0 11.3 0.00 0.00 0.00 55 1009.8
20260903043524 84 115 7.0 11.3 0.00 0.00 0.00 55 1009.9
20260903043048 84 106 7.0 11.3 0.00 0.00 0.00 55 1009.9
20260903042523 84 88 7.0 11.3 0.00 0.00 0.00 54 1009.9
20260903042024 84 105 7.0 11.3 0.00 0.00 0.00 54 1009.9
20260903041545 84 105 7.8 11.3 0.00 0.00 0.00 54 1009.9
20260903041024 85 109 6.1 10.4 0.00 0.00 0.00 54 1009.9
20260903040526 85 98 7.8 11.3 0.00 0.00 0.00 53 1009.9
20260903040049 85 107 7.0 12.2 0.00 0.00 0.00 53 1010.0
20260903035521 85 107 7.8 12.2 0.00 0.00 0.00 53 1010.0
20260903035025 85 101 7.8 11.3 0.00 0.00 0.00 53 1010.0
20260903034548 85 105 7.0 12.2 0.00 0.00 0.00 53 1010.0
20260903034024 85 90 7.8 12.2 0.00 0.00 0.00 53 1010.0
20260903033528 85 104 7.0 11.3 0.00 0.00 0.00 52 1010.1
20260903033045 85 99 7.0 12.2 0.00 0.00 0.00 52 1010.2
20260903032526 85 91 7.0 12.2 0.00 0.00 0.00 52 1010.2
20260903032024 85 94 7.0 12.2 0.00 0.00 0.00 52 1010.2
20260903031545 85 96 7.8 12.2 0.00 0.00 0.00 52 1010.1
20260903031024 85 115 7.0 11.3 0.00 0.00 0.00 52 1010.0
20260903030525 85 105 7.0 11.3 0.00 0.00 0.00 52 1010.1
20260903030049 85 99 7.0 10.4 0.00 0.00 0.00 52 1010.1
20260903025525 85 93 7.0 10.4 0.00 0.00 0.00 52 1010.1
20260903025023 85 103 5.2 8.7 0.00 0.00 0.00 51 1010.0
20260903024545 86 99 5.2 8.7 0.00 0.00 0.00 51 1010.0
20260903024023 86 104 4.3 7.8 0.00 0.00 0.00 51 1010.0
20260903023523 86 103 4.3 7.8 0.00 0.00 0.00 51 1010.0
20260903023043 86 101 6.1 8.7 0.00 0.00 0.00 50 1010.0
20260903022525 86 105 5.2 9.6 0.00 0.00 0.00 50 1009.9
20260903022024 86 102 5.2 9.6 0.00 0.00 0.00 50 1009.8
20260903021546 87 112 6.1 9.6 0.00 0.00 0.00 49 1009.7
20260903021023 87 94 4.3 7.8 0.00 0.00 0.00 49 1009.7
20260903020523 87 101 4.3 7.8 0.00 0.00 0.00 49 1009.5
20260903020050 87 107 5.2 8.7 0.00 0.00 0.00 49 1009.4
20260903015523 88 109 5.2 8.7 0.00 0.00 0.00 48 1009.3
20260903015025 88 103 6.1 10.4 0.00 0.00 0.00 48 1009.3
20260903014549 88 94 5.2 10.4 0.00 0.00 0.00 48 1009.4
20260903014024 88 101 6.1 10.4 0.00 0.00 0.00 47 1009.2
20260903013525 89 111 6.1 7.8 0.00 0.00 0.00 47 1009.2
20260903013045 89 104 4.3 7.8 0.00 0.00 0.00 46 1009.1
20260903012530 90 109 5.2 7.8 0.00 0.00 0.00 46 1009.0
20260903012027 90 105 5.2 8.7 0.00 0.00 0.00 46 1009.0
20260903011558 90 114 5.2 8.7 0.00 0.00 0.00 45 1009.0
20260903011024 91 103 6.1 9.6 0.00 0.00 0.00 45 1009.0
20260903010527 91 112 6.1 9.6 0.00 0.00 0.00 44 1008.9
20260903010044 92 103 6.1 9.6 0.00 0.00 0.00 43 1009.0
20260903005526 92 101 7.0 11.3 0.00 0.00 0.00 42 1009.0
20260903005025 93 109 7.8 11.3 0.00 0.00 0.00 42 1008.9
20260903004541 93 104 7.0 11.3 0.00 0.00 0.00 41 1008.9
20260903004026 94 115 6.1 11.3 0.00 0.00 0.00 41 1009.0
20260903003525 95 103 7.8 11.3 0.00 0.00 0.00 40 1009.0
20260903003046 95 107 7.8 11.3 0.00 0.00 0.00 40 1009.1
20260903002529 95 94 7.8 11.3 0.00 0.00 0.00 39 1009.1
20260903002024 96 108 7.8 13.0 0.00 0.00 0.00 39 1009.0
20260903001543 96 108 7.0 13.0 0.00 0.00 0.00 39 1009.0
20260903001021 97 124 7.8 13.0 0.00 0.00 0.00 38 1009.0
20260903000521 97 106 8.7 12.2 0.00 0.00 0.00 38 1009.0
20260903000046 97 109 7.0 14.8 0.00 0.00 0.00 37 1009.2
20260902235524 98 123 8.7 14.8 0.00 0.00 0.00 36 1009.0
20260902235023 98 107 8.7 14.8 0.00 0.00 0.00 36 1009.0
20260902234547 98 109 7.8 16.5 0.00 0.00 0.00 36 1009.0
20260902234023 98 102 9.6 16.5 0.00 0.00 0.00 36 1009.1
20260902233526 98 110 11.3 18.2 0.00 0.00 0.00 35 1009.0
20260902233053 98 126 11.3 18.2 0.00 0.00 0.00 35 1009.0
20260902232526 98 129 10.4 18.2 0.00 0.00 0.00 35 1009.1
20260902232023 99 135 11.3 18.2 0.00 0.00 0.00 34 1009.1
20260902231558 99 139 11.3 17.4 0.00 0.00 0.00 35 1009.0
20260902231021 99 98 9.6 17.4 0.00 0.00 0.00 35 1009.0
20260902230524 99 100 9.6 15.6 0.00 0.00 0.00 35 1009.0
20260902230048 99 102 10.4 16.5 0.00 0.00 0.00 35 1009.0
20260902225524 100 101 10.4 16.5 0.00 0.00 0.00 35 1009.1
20260902225024 100 116 9.6 16.5 0.00 0.00 0.00 35 1009.1
20260902224553 100 120 10.4 16.5 0.00 0.00 0.00 35 1009.1
20260902224023 101 130 11.3 14.8 0.00 0.00 0.00 34 1009.1
20260902223525 101 114 9.6 15.6 0.00 0.00 0.00 34 1009.3
20260902223043 101 119 8.7 16.5 0.00 0.00 0.00 33 1009.3
20260902222524 101 144 9.6 16.5 0.00 0.00 0.00 32 1009.3
20260902222024 101 124 8.7 16.5 0.00 0.00 0.00 32 1009.3
20260902221550 101 128 10.4 16.5 0.00 0.00 0.00 31 1009.4
20260902221027 101 103 9.6 16.5 0.00 0.00 0.00 32 1009.4
20260902220524 100 115 7.8 16.5 0.00 0.00 0.00 32 1009.4
20260902220044 102 119 9.6 15.6 0.00 0.00 0.00 32 1009.5
20260902215524 102 128 8.7 15.6 0.00 0.00 0.00 32 1009.4
20260902215024 102 123 9.6 16.5 0.00 0.00 0.00 31 1009.5
20260902214546 102 117 10.4 17.4 0.00 0.00 0.00 32 1009.5
20260902214024 102 139 10.4 17.4 0.00 0.00 0.00 30 1009.6
20260902213525 102 120 9.6 17.4 0.00 0.00 0.00 29 1009.6
20260902213052 102 153 7.0 17.4 0.00 0.00 0.00 30 1009.6
20260902212525 102 123 9.6 18.2 0.00 0.00 0.00 30 1009.7
20260902212024 102 122 13.0 18.2 0.00 0.00 0.00 30 1009.7
20260902211552 101 129 4.3 12.2 0.00 0.00 0.00 31 1009.8
20260902211026 102 146 6.1 14.8 0.00 0.00 0.00 30 1010.0
20260902210525 102 144 6.1 17.4 0.00 0.00 0.00 31 1010.0
20260902210047 101 145 10.4 17.4 0.00 0.00 0.00 31 1010.1
20260902205525 101 103 11.3 17.4 0.00 0.00 0.00 32 1010.1
20260902205024 101 141 9.6 17.4 0.00 0.00 0.00 32 1010.1
20260902204547 102 169 7.8 14.8 0.00 0.00 0.00 31 1010.3
20260902204024 102 157 6.1 14.8 0.00 0.00 0.00 31 1010.3
20260902203523 101 126 5.2 16.5 0.00 0.00 0.00 31 1010.3
20260902203046 102 151 7.8 16.5 0.00 0.00 0.00 30 1010.4
20260902202524 103 113 8.7 13.9 0.00 0.00 0.00 31 1010.5
20260902202024 103 138 5.2 15.6 0.00 0.00 0.00 32 1010.6
20260902201542 102 178 9.6 20.0 0.00 0.00 0.00 31 1010.7
20260902201023 102 115 9.6 20.0 0.00 0.00 0.00 31 1010.6
20260902200528 101 117 10.4 17.4 0.00 0.00 0.00 33 1010.7
20260902200045 102 96 9.6 18.2 0.00 0.00 0.00 33 1010.8
20260902195523 102 112 10.4 18.2 0.00 0.00 0.00 32 1010.8
20260902195025 103 101 7.8 15.6 0.00 0.00 0.00 33 1010.8
20260902194544 102 102 9.6 15.6 0.00 0.00 0.00 33 1010.9
20260902194025 102 106 8.7 18.2 0.00 0.00 0.00 32 1011.0
20260902193524 102 90 9.6 18.2 0.00 0.00 0.00 33 1011.1
20260902193049 102 127 10.4 16.5 0.00 0.00 0.00 33 1011.1
20260902192524 102 101 9.6 16.5 0.00 0.00 0.00 35 1011.1
20260902192024 101 111 7.8 16.5 0.00 0.00 0.00 35 1011.3
20260902191546 102 123 10.4 16.5 0.00 0.00 0.00 34 1011.3
20260902191026 101 117 8.7 20.9 0.00 0.00 0.00 37 1011.4
20260902190525 101 117 11.3 20.9 0.00 0.00 0.00 37 1011.4
20260902190046 101 134 7.8 16.5 0.00 0.00 0.00 36 1011.6
20260902185524 101 149 10.4 21.7 0.00 0.00 0.00 36 1011.7
20260902185024 101 96 11.3 21.7 0.00 0.00 0.00 36 1011.7
20260902184552 102 104 11.3 20.0 0.00 0.00 0.00 36 1011.8
20260902184023 101 144 6.1 15.6 0.00 0.00 0.00 37 1011.9
20260902183524 101 126 10.4 17.4 0.00 0.00 0.00 38 1012.0
20260902183045 100 124 9.6 20.0 0.00 0.00 0.00 37 1012.0
20260902182523 100 148 8.7 20.0 0.00 0.00 0.00 37 1012.2
20260902182025 100 107 10.4 17.4 0.00 0.00 0.00 38 1012.2
20260902181546 99 103 8.7 17.4 0.00 0.00 0.00 39 1012.3
20260902181026 99 109 11.3 18.2 0.00 0.00 0.00 39 1012.4
20260902180523 99 113 12.2 20.0 0.00 0.00 0.00 39 1012.4
20260902175522 99 113 7.8 14.8 0.00 0.00 0.00 39 1012.4
20260902175025 99 121 8.7 17.4 0.00 0.00 0.00 40 1012.5
20260902174549 99 136 9.6 20.0 0.00 0.00 0.00 40 1012.7
20260902174024 99 153 9.6 20.0 0.00 0.00 0.00 40 1012.7
20260902173526 99 147 13.9 20.0 0.00 0.00 0.00 40 1012.8
20260902173046 98 154 8.7 16.5 0.00 0.00 0.00 42 1012.9
20260902172526 98 130 8.7 16.5 0.00 0.00 0.00 41 1012.9
20260902172024 98 132 10.4 16.5 0.00 0.00 0.00 42 1013.0
20260902171548 97 128 12.2 16.5 0.00 0.00 0.00 42 1013.0
20260902171024 97 102 8.7 16.5 0.00 0.00 0.00 42 1013.0
20260902170525 97 122 7.8 16.5 0.00 0.00 0.00 43 1013.1
20260902170047 97 138 9.6 15.6 0.00 0.00 0.00 43 1013.2
20260902165525 97 124 8.7 17.4 0.00 0.00 0.00 43 1013.1
20260902165028 96 146 8.7 17.4 0.00 0.00 0.00 44 1013.1
20260902164545 96 136 8.7 16.5 0.00 0.00 0.00 44 1013.2
20260902164024 95 155 7.8 19.1 0.00 0.00 0.00 45 1013.3
20260902163524 96 144 9.6 19.1 0.00 0.00 0.00 45 1013.3
20260902163051 95 153 10.4 18.2 0.00 0.00 0.00 45 1013.5
20260902162524 95 110 7.8 15.6 0.00 0.00 0.00 46 1013.5
20260902162024 95 157 8.7 16.5 0.00 0.00 0.00 45 1013.5
20260902161553 95 130 9.6 16.5 0.00 0.00 0.00 46 1013.5
20260902161026 94 150 8.7 19.1 0.00 0.00 0.00 47 1013.5
20260902160525 94 146 10.4 20.9 0.00 0.00 0.00 46 1013.5
20260902160044 94 103 7.8 20.9 0.00 0.00 0.00 47 1013.6
20260902155528 94 143 13.0 20.9 0.00 0.00 0.00 47 1013.6
20260902155026 94 138 7.8 17.4 0.00 0.00 0.00 48 1013.5
20260902154544 93 127 7.8 17.4 0.00 0.00 0.00 48 1013.7
20260902154025 93 161 10.4 17.4 0.00 0.00 0.00 48 1013.6
20260902153525 93 159 10.4 17.4 0.00 0.00 0.00 49 1013.6
20260902153050 92 137 9.6 19.1 0.00 0.00 0.00 49 1013.6
20260902152526 91 130 8.7 19.1 0.00 0.00 0.00 51 1013.6
20260902152023 91 133 10.4 19.1 0.00 0.00 0.00 51 1013.6